[[{"header":{"parameterUnit":"m.s-1","parameterCategory":1,"la1":30.2991,"la2":30.254,"lo1":-89.0895,"lo2":-89.0444,"dy":0.0017,"dx":0.0017,"nx":28,"ny":28,"refTime":"2024-03-05T03:00:00:Z","depth":0,"parameterNumber":2,"parameterNumberName":"U-component_of_WINDS"},"data":[0,0,0,0,0,0,0,0,0,0,0,0,0,0,0,0,0,0,0,0,0,0,0,0,0,0,0,0,0,0,0,0,0,0,0,0,0,0,0,0,0,0,0,0,0,0,0,0,0,0,0,0,0,0,0,0,0,0,0.8226,0.8226,0,0.823,0.823,0.823,0.8211,0.821,0.8209,0.8209,0.8212,0.8213,0.8214,0,0,0,0,0,0,0,0,0,0,0,0,0,0.82,0.82,0.8226,0.8226,0.8226,0.823,0.823,0.823,0.8211,0.821,0.8209,0.8209,0.8212,0.8213,0.8214,0,0,0,0,0,0,0,0,0,0,0,0,0,0.8208,0.8201,0.8226,0.8217,0.8216,0.823,0.823,0.823,0.8211,0.821,0.8209,0.8208,0.8212,0.8213,0.8214,0.8236,0,0,0.8217,0.8217,0,0,0,0,0,0,0,0,0.8208,0.8209,0.8218,0.8217,0.8216,0.8219,0.8222,0.8232,0.8211,0.8213,0.8209,0.8208,0.8215,0.8216,0.8218,0.8236,0.8237,0.8217,0.8217,0.8218,0.8218,0,0,0,0,0,0,0,0.8207,0.8209,0.8227,0.8218,0.8217,0.8212,0.8212,0.8224,0.8218,0.8212,0.8211,0.8212,0.8215,0.8217,0.8218,0.8237,0.8217,0.8217,0.8218,0.8218,0.8273,0.8274,0,0,0,0,0,0,0.8208,0.8209,0.8227,0.8227,0.821,0.8213,0.8213,0.8219,0.8218,0.8217,0.8213,0.8211,0.8216,0.8217,0.8218,0.8245,0.8218,0.8218,0.8219,0.8272,0.8273,0.8274,0,0,0,0,0,0,0.8207,0.821,0.8227,0.8218,0.8219,0.8214,0.8221,0.8219,0.8222,0.8218,0.8217,0.8217,0.8216,0.8217,0.8232,0.8245,0.8219,0.822,0.8271,0.8273,0.8274,0.8298,0,0,0,0,0,0,0.8207,0.821,0.8218,0.8218,0.822,0.8241,0.8221,0.822,0.8224,0.8222,0.8222,0.8221,0.8215,0.8231,0.8233,0.8245,0.822,0.827,0.8272,0.8274,0.8296,0.83,0.8303,0,0,0,0,0,0.8206,0.8225,0.8219,0.8221,0.8231,0.8242,0.8243,0.8236,0.8225,0.8234,0.8231,0.8221,0.8243,0.8232,0.8235,0.8248,0.8269,0.8271,0.8273,0.8294,0.8299,0.8303,0,0,0,0,0,0,0.8227,0.8225,0.8218,0.8237,0.824,0.8238,0.8249,0.8241,0.8246,0.8244,0.8235,0.8235,0.8252,0.8251,0.8239,0.8269,0.8254,0.8257,0.8269,0.8274,0.8277,0.8277,0.8221,0,0,0,0,0,0.8234,0.8243,0.824,0.8258,0.8259,0.8254,0.8258,0.8253,0.8255,0.8256,0.8254,0.8256,0.8264,0.8269,0.8275,0.8296,0.8295,0.8306,0.8309,0.8312,0.8315,0.8326,0.833,0.8281,0.8281,0.8281,0,0,0.8248,0.8248,0.8254,0.8262,0.8263,0.8273,0.8255,0.8266,0.8273,0.8257,0.8271,0.827,0.8272,0.829,0.8298,0.829,0.8328,0.8315,0.8317,0.8318,0.8328,0.8333,0.8337,0.8283,0.8282,0.8282,0,0,0.8278,0.8279,0.8294,0.8296,0.8298,0.8294,0.8298,0.8298,0.8296,0.8311,0.8299,0.8307,0.832,0.8321,0.8324,0.8356,0.8346,0.8358,0.8377,0.8388,0.8392,0.8395,0.8406,0.841,0.836,0.836,0.836,0,0.8296,0.831,0.8302,0.8314,0.8318,0.8304,0.8319,0.8321,0.8325,0.8328,0.8319,0.8335,0.8335,0.8353,0.8361,0.8363,0.8367,0.8358,0.8392,0.8395,0.8398,0.8409,0.8413,0.8362,0.8361,0.8361,0.8361,0,0.8331,0.8341,0.8353,0.8357,0.8362,0.8375,0.8369,0.8375,0.8369,0.8366,0.8381,0.8381,0.8387,0.8391,0.8385,0.8408,0.8403,0.8393,0.8378,0.8404,0.8414,0.8418,0.8364,0.8363,0.8363,0.8362,0,0,0.8375,0.8376,0.838,0.8382,0.8383,0.8391,0.8403,0.841,0.8415,0.8418,0.8428,0.8439,0.843,0.8433,0.8427,0.8436,0.8462,0.8425,0.8425,0.8432,0.8487,0.8495,0.85,0.8455,0.8456,0.8457,0.8487,0,0.8405,0.8427,0.842,0.8442,0.8451,0.8439,0.8449,0.8451,0.8449,0.8456,0.8453,0.8462,0.8449,0.8451,0.8459,0.8457,0.8473,0.8454,0.8465,0.8465,0.8465,0.8505,0.8513,0.8542,0.8491,0.8492,0.8492,0,0.8444,0.8449,0.8471,0.8472,0.8475,0.8485,0.849,0.8497,0.8499,0.8497,0.85,0.8492,0.8504,0.8489,0.8505,0.8493,0.8496,0.8496,0.8497,0.8497,0.848,0.8507,0.8551,0.8555,0.8498,0.8498,0.8497,0,0.8474,0.8486,0.8501,0.8503,0.8504,0.8511,0.8511,0.8513,0.8517,0.8521,0.8524,0.853,0.8533,0.8538,0.8531,0.8521,0.8549,0.8532,0.8547,0.8547,0.8553,0.8553,0.8598,0.8556,0.8556,0.8555,0.8555,0,0.8508,0.8522,0.8515,0.8524,0.854,0.8532,0.8548,0.8547,0.8548,0.8556,0.8546,0.8554,0.8545,0.8553,0.8548,0.8562,0.8564,0.8562,0.856,0.8563,0.8563,0.8565,0.8563,0.8557,0.8556,0.8556,0.8556,0,0.8544,0.854,0.8555,0.8555,0.8555,0.8566,0.8565,0.8574,0.8571,0.8582,0.8584,0.858,0.8588,0.8582,0.859,0.8587,0.8606,0.8601,0.8605,0.8604,0.8619,0.8617,0.8667,0.8673,0.8627,0.8627,0.8627,0,0.8566,0.8577,0.8578,0.8583,0.8584,0.8593,0.8597,0.859,0.8595,0.8598,0.8606,0.8614,0.8619,0.8633,0.863,0.8636,0.8632,0.8649,0.8633,0.8635,0.8632,0.8632,0.8633,0.8652,0.8653,0.8653,0.8654,0,0.8607,0.8604,0.8611,0.8617,0.8623,0.8627,0.8631,0.8636,0.8628,0.8635,0.8643,0.8647,0.8656,0.8663,0.8669,0.8669,0.866,0.8659,0.8662,0.8665,0.8667,0.8666,0.8614,0.8658,0.8657,0.8657,0.8657,0.8656,0.8636,0.8645,0.8647,0.8655,0.8657,0.8661,0.8669,0.8667,0.8674,0.8681,0.8676,0.8686,0.8688,0.8694,0.8695,0.8703,0.8696,0.8701,0.8702,0.8704,0.8706,0.8666,0.8704,0.8703,0.8703,0.8703,0.8703,0,0.8676,0.8676,0.8684,0.869,0.8696,0.8688,0.8691,0.8697,0.8706,0.8708,0.8714,0.8724,0.8731,0.8729,0.8735,0.8742,0.8738,0.8744,0.8743,0.8743,0.8712,0.8708,0.8747,0.8747,0.8747,0.8747,0.8747,0.8747,0.8697,0.8712,0.8709,0.8725,0.8725,0.8736,0.8738,0.8742,0.8743,0.8755,0.8761,0.876,0.876,0.8767,0.8773,0.8772,0.8775,0.8782,0.878,0.875,0.8746,0.8742,0.8738,0.8783,0.8783,0.8811,0.8811,0.8811]},{"header":{"parameterUnit":"m.s-1","parameterCategory":1,"la1":30.2991,"la2":30.254,"lo1":-89.0895,"lo2":-89.0444,"dy":0.0017,"dx":0.0017,"nx":28,"ny":28,"refTime":"2024-03-05T03:00:00:Z","depth":0,"parameterNumber":3,"parameterNumberName":"V-component_of_WINDS"},"data":[0,0,0,0,0,0,0,0,0,0,0,0,0,0,0,0,0,0,0,0,0,0,0,0,0,0,0,0,0,0,0,0,0,0,0,0,0,0,0,0,0,0,0,0,0,0,0,0,0,0,0,0,0,0,0,0,0,0,1.4885,1.4884,0,1.478,1.4779,1.4778,1.4761,1.4762,1.4763,1.4764,1.4654,1.465,1.4646,0,0,0,0,0,0,0,0,0,0,0,0,0,1.5068,1.5065,1.4885,1.4884,1.4882,1.4781,1.4779,1.4778,1.4761,1.4762,1.4763,1.4764,1.4655,1.465,1.4646,0,0,0,0,0,0,0,0,0,0,0,0,0,1.4979,1.5064,1.4885,1.4862,1.4859,1.4781,1.4779,1.4777,1.4761,1.4762,1.4764,1.4765,1.4656,1.4651,1.4645,1.4582,0,0,1.4628,1.4625,0,0,0,0,0,0,0,0,1.4984,1.4972,1.4867,1.4863,1.486,1.4785,1.4803,1.4712,1.476,1.4798,1.4764,1.4765,1.4696,1.4687,1.4664,1.4577,1.4572,1.4627,1.4624,1.4621,1.462,0,0,0,0,0,0,0,1.499,1.4976,1.4843,1.4865,1.4861,1.4856,1.4845,1.4786,1.474,1.4795,1.4793,1.4781,1.4694,1.467,1.4662,1.4571,1.4627,1.4622,1.4619,1.4617,1.4429,1.4427,0,0,0,0,0,0,1.5001,1.4982,1.4847,1.484,1.4926,1.4852,1.4839,1.4808,1.4741,1.4732,1.478,1.4781,1.4679,1.4668,1.4658,1.4581,1.4621,1.4616,1.4613,1.443,1.4428,1.4427,0,0,0,0,0,0,1.5005,1.4989,1.4851,1.4911,1.4893,1.4847,1.4812,1.4805,1.478,1.473,1.4722,1.4764,1.468,1.4666,1.4602,1.4577,1.4613,1.4608,1.4432,1.443,1.4428,1.4427,0,0,0,0,0,0,1.501,1.499,1.4966,1.491,1.489,1.4797,1.481,1.4802,1.4771,1.4771,1.4712,1.4704,1.468,1.4611,1.4596,1.457,1.4604,1.4434,1.4431,1.4428,1.4429,1.4425,1.4421,0,0,0,0,0,1.5017,1.4969,1.4965,1.4949,1.4859,1.4796,1.4784,1.4758,1.4769,1.4745,1.4713,1.4706,1.4582,1.4604,1.4588,1.456,1.4436,1.4432,1.4429,1.4431,1.4426,1.4422,0,0,0,0,0,0,1.5022,1.4961,1.4956,1.4889,1.4848,1.4793,1.4761,1.4753,1.4707,1.4709,1.4678,1.4665,1.4603,1.4574,1.46,1.4496,1.451,1.4503,1.4517,1.4512,1.4508,1.4516,1.4599,0,0,0,0,0,1.5016,1.4971,1.492,1.4865,1.4845,1.4807,1.4779,1.4762,1.4718,1.47,1.4663,1.462,1.4571,1.454,1.4492,1.4425,1.4412,1.4398,1.4394,1.4391,1.4385,1.4349,1.4342,1.4415,1.4415,1.4415,0,0,1.5001,1.4963,1.4936,1.4866,1.4832,1.4786,1.4792,1.4742,1.4708,1.4692,1.463,1.4602,1.4551,1.4486,1.4455,1.4461,1.4363,1.4386,1.4384,1.438,1.4345,1.4338,1.4332,1.4413,1.4413,1.4413,0,0,1.4952,1.4918,1.487,1.4837,1.4786,1.4762,1.475,1.4697,1.4678,1.4616,1.4604,1.4562,1.4478,1.4443,1.4415,1.4355,1.4347,1.434,1.432,1.4285,1.428,1.4275,1.4254,1.4247,1.4335,1.4335,1.4335,0,1.4941,1.4871,1.4846,1.4798,1.4768,1.4753,1.4705,1.4673,1.4609,1.4588,1.4596,1.4492,1.4457,1.4384,1.437,1.4347,1.4333,1.4347,1.4283,1.4277,1.4272,1.4253,1.4245,1.4334,1.4334,1.4334,1.4334,0,1.486,1.4813,1.478,1.4721,1.4687,1.4638,1.4606,1.4574,1.4562,1.4536,1.4474,1.4431,1.4376,1.4357,1.4343,1.4283,1.4288,1.4289,1.4302,1.4265,1.4246,1.4239,1.4333,1.4334,1.4334,1.4334,0,0,1.4811,1.474,1.4728,1.4702,1.4646,1.4609,1.456,1.4507,1.4482,1.4438,1.4397,1.4328,1.433,1.4297,1.4279,1.4249,1.4206,1.4254,1.4252,1.4248,1.4138,1.4138,1.413,1.4201,1.4199,1.4198,1.4143,0,1.4756,1.467,1.4647,1.4574,1.453,1.4517,1.4474,1.4436,1.4411,1.437,1.4342,1.4294,1.4299,1.428,1.4249,1.4218,1.4184,1.4221,1.4162,1.4161,1.4176,1.412,1.4119,1.4069,1.4135,1.4134,1.4133,0,1.468,1.4638,1.4561,1.4513,1.4494,1.4456,1.4407,1.4368,1.4324,1.4308,1.4273,1.4259,1.4208,1.4224,1.4153,1.4179,1.4154,1.4135,1.4132,1.4126,1.4145,1.4113,1.4053,1.4046,1.4121,1.4122,1.4123,0,1.4654,1.4577,1.4522,1.4499,1.4441,1.4416,1.439,1.4347,1.4318,1.4274,1.4255,1.4206,1.4179,1.4141,1.4114,1.4128,1.4046,1.406,1.4032,1.4033,1.4016,1.4017,1.3951,1.3998,1.3998,1.3998,1.3998,0,1.4595,1.4549,1.4509,1.4475,1.4423,1.4397,1.4347,1.432,1.4283,1.4244,1.4228,1.4191,1.4157,1.4116,1.4094,1.404,1.4027,1.4013,1.4008,1.4015,1.4017,1.3998,1.4001,1.3996,1.3997,1.3997,1.3997,0,1.4556,1.4528,1.4467,1.4418,1.4404,1.4369,1.4326,1.4293,1.4268,1.4219,1.4206,1.4167,1.4117,1.4087,1.4023,1.4009,1.395,1.3945,1.3965,1.3963,1.3938,1.3941,1.3858,1.3846,1.39,1.39,1.3899,0,1.4522,1.4486,1.4434,1.4408,1.4382,1.4339,1.431,1.4283,1.4252,1.4201,1.4174,1.4124,1.4083,1.4005,1.397,1.3922,1.3917,1.3892,1.391,1.3919,1.3918,1.3921,1.3918,1.3889,1.3888,1.3888,1.3887,0,1.4463,1.4451,1.441,1.4364,1.433,1.4292,1.4254,1.4233,1.4199,1.4166,1.4117,1.4085,1.4022,1.3973,1.3923,1.3895,1.3886,1.3882,1.3873,1.3881,1.3894,1.3888,1.3958,1.3884,1.3884,1.3885,1.3885,1.3885,1.4426,1.4395,1.4354,1.4309,1.4278,1.4244,1.421,1.4183,1.4141,1.4089,1.4075,1.4024,1.3982,1.3913,1.3885,1.3845,1.3848,1.3835,1.3832,1.3829,1.383,1.39,1.3835,1.3835,1.3835,1.3835,1.3835,0,1.4368,1.4342,1.4301,1.4249,1.4214,1.421,1.4168,1.4139,1.4094,1.4056,1.4017,1.3961,1.3914,1.3876,1.3828,1.3803,1.3797,1.3791,1.3793,1.3787,1.3829,1.3842,1.3796,1.3796,1.3796,1.3796,1.3796,1.3796,1.4334,1.4281,1.4265,1.4197,1.4171,1.4121,1.4098,1.4067,1.4037,1.3975,1.3937,1.3913,1.3876,1.3825,1.3782,1.3772,1.3755,1.375,1.374,1.3779,1.3784,1.3788,1.38,1.3746,1.3746,1.3701,1.3701,1.3701]}]]